AirNav   Phillips 66 Aviation Fuel
 
 307 users online  

4F2 Panola County Airport-Sharpe Field
Carthage, Texas, USA

GOING TO CARTHAGE?


FAA INFORMATION EFFECTIVE 12 SEPTEMBER 2019

Location

FAA Identifier: 4F2
Lat/Long: 32-10-33.9000N 094-17-55.7000W
32-10.565000N 094-17.928333W
32.1760833,-94.2988056
(estimated)
Elevation: 248 ft. / 75.6 m (surveyed)
Variation: 04E (1995)
From city: 2 miles E of CARTHAGE, TX
Time zone: UTC -5 (UTC -6 during Standard Time)
Zip code: 75633

Airport Operations

Airport use: Open to the public
Activation date: 09/1963
Control tower: no
ARTCC: FORT WORTH CENTER
FSS: FORT WORTH FLIGHT SERVICE STATION
NOTAMs facility: FTW (NOTAM-D service available)
Attendance: MON-FRI 0800-1700
Wind indicator: lighted
Segmented circle: yes
Lights: MIRL RY 17/35 PRESET LOW INTST; TO INCR INTST ACTVT - CTAF.
Beacon: white-green (lighted land airport)
Operates sunset to sunrise.

Airport Communications

CTAF/UNICOM: 122.8
WX AWOS-3PT: 121.125 (903-690-0511)
LONGVIEW APPROACH: 119.9 124.275
LONGVIEW DEPARTURE: 119.9 124.275
  • WHEN LONGVIEW (GGG) APC/DEP IS CLSD, APCH/DEP SVC IS PRVDD BY BARKSDALE (BAD) ON FREQS 119.9/335.55.

Nearby radio navigation aids

VOR radial/distance  VOR name  Freq  Var
GGGr115/27.2GREGG COUNTY VORTAC112.3007E
EMGr242/38.1ELM GROVE VORTAC111.2007E

 
NDB name  Hdg/Dist  Freq  Var  ID
CARTHAGEat field33204ERPF .-. .--. ..-.
AMASON336/21.934104ECZJ -.-. --.. .---
MANSFIELD280/28.041404EMSD -- ... -..
NACOGDOCHES028/37.839105EGXD --. -..- -..

Airport Services

Fuel available: 100LL
FUEL AVBL 24 HRS SELF-SERVE WITH MAJOR CREDIT CARD.
Parking: tiedowns
Bottled oxygen: NONE
Bulk oxygen: NONE

Runway Information

Runway 17/35

Dimensions: 4000 x 75 ft. / 1219 x 23 m
Surface: asphalt, in good condition
Runway edge lights: medium intensity
RUNWAY 17  RUNWAY 35
Latitude: 32-10.894252N32-10.235000N
Longitude: 094-17.943713W094-17.913840W
Elevation: 244.1 ft.248.0 ft.
Traffic pattern: leftleft
Runway heading: 174 magnetic, 178 true354 magnetic, 358 true
Markings: nonprecision, in fair conditionnonprecision, in fair condition
Visual slope indicator: 4-light PAPI on left (3.00 degrees glide path)4-light PAPI on left (4.00 degrees glide path)
Touchdown point: yes, no lightsyes, no lights
Obstructions: 104 ft. trees, 3205 ft. from runway, 28:1 slope to clear80 ft. trees, 1900 ft. from runway, 100 ft. right of centerline, 21:1 slope to clear

Airport Ownership and Management from official FAA records

Ownership: Publicly-owned
Owner: PANOLA CO
PANOLA CO. COURTHOUSE
CARTHAGE, TX 75633
Phone 903-693-0391
EMERGENCY PHONE NRS: 903-754-2741 (CELL) OR SHERIFF'S OFFICE 903-693-0333.
Manager: JOHN DE PRESCA, JR.
1305 HIGHWAY 79 NORTH
CARTHAGE, TX 75633
Phone 903-693-7856
MGR CELL 903-754-2741

Airport Operational Statistics

Aircraft based on the field: 9
Single engine airplanes: 8
Ultralights: 1
    
Aircraft operations: avg 27/week *
71% transient general aviation
29% local general aviation
* for 12-month period ending 23 March 2019

Additional Remarks

DEER ON & INVOF RY.
NMRS MISSING RWY LIGHTS.
FOR CD CTC FORT WORTH ARTCC AT 817-858-7584.

Instrument Procedures

NOTE: All procedures below are presented as PDF files. If you need a reader for these files, you should download the free Adobe Reader.

NOT FOR NAVIGATION. Please procure official charts for flight.
FAA instrument procedures published for use from 12 September 2019 at 0901Z to 10 October 2019 at 0900Z.

 
IAPs - Instrument Approach Procedures
RNAV (GPS) RWY 17   download (156KB)
RNAV (GPS) RWY 35   download (172KB)
NDB RWY 35   download (165KB)

Other nearby airports with instrument procedures:

KASL - Harrison County Airport (21 nm N)
F17 - Center Municipal Airport (22 nm S)
KGGG - East Texas Regional Airport (24 nm NW)
3F3 - C E 'Rusty' Williams Airport (28 nm E)
KRFI - Rusk County Airport (28 nm W)
 
Loc | Ops | Rwys | IFR | FBO | Links
Com | Nav | Svcs | Stats | Notes
Area around 4F2 (Panola County Airport-Sharpe Field)
 
Road maps at: MapQuest Bing Google
 
Aerial photo
WARNING: Photo may not be current or correct
Aerial photo of 4F2 (Panola County Airport-Sharpe Field)
Photo taken 28-Jan-2018
looking ​south from 4,500 ft.

Do you have a better or more recent aerial photo of Panola County Airport-Sharpe Field that you would like to share? If so, please send us your photo.

 
Sectional chart

 
Airport distance calculator
Flying to Panola County Airport-Sharpe Field? Find the distance to fly.

From to 4F2

Sunrise and sunset
Times for 15-Sep-2019
 Local
(UTC-5)
 Zulu
(UTC)
Morning civil twilight06:3711:37
Sunrise07:0212:02
Sunset19:2300:23
Evening civil twilight19:4700:47

Current date and time
Zulu (UTC)  15-Sep-2019 07:01:45
Local (UTC-5)  15-Sep-2019 02:01:45
 
METAR
KASL 
21nm N 
150655Z AUTO 10SM CLR 24/20 A3011 RMK AO1 T02400196
KF17 
22nm S 
150655Z AUTO 00000KT 10SM CLR 21/19 A3010 RMK AO2 T02110191
KGGG 
25nm NW 
150653Z AUTO 00000KT 10SM CLR 25/21 A3008 RMK AO2 SLP177 T02500206 $
K3F3 
28nm E 
150655Z AUTO 00000KT 10SM CLR 24/21 A3012 RMK AO2 T02350212
KRFI 
28nm W 
150655Z AUTO 00000KT 10SM CLR 23/20 A3010 RMK AO2 T02300200
KSHV 
29nm NE 
150656Z 00000KT 10SM CLR 27/20 A3008 RMK AO2 SLP183 T02670200
KDTN 
36nm NE 
150653Z AUTO 00000KT 10SM CLR 26/21 A3009 RMK AO2 SLP184 T02560206
KBAD 
37nm NE 
150656Z AUTO 00000KT 10SM CLR 25/20 A3008 RMK AO2 SLP187 T02450200
TAF
KGGG 
25nm NW 
150524Z 1506/1606 VRB03KT P6SM SCT080 FM151800 09007KT P6SM SCT060 FM160300 10004KT P6SM FEW080
KSHV 
29nm NE 
150524Z 1506/1606 08004KT P6SM SKC FM151800 07008KT P6SM SCT060 FM160200 08004KT P6SM SKC
NOTAMs
Click for the latest NOTAMs
NOTAMs are issued by the DoD/FAA and will open in a separate window not controlled by AirNav.

 

 
 

FBO, Fuel Providers, and Aircraft Ground Support

  
 Business Name 
 
 Contact 
 
 Services / Description 
 
Fuel Prices
 
Comments
  
 Panola County Airport-Sharpe Field
UNICOM 122.80
903-693-7856
[web site]
[email]
Best little fuel stop in East Texas. 24/7 Credit card machine at the pump.

More info about Panola County Airport-Sharpe Field
Avfuel
100LL
SS $3.60 
GUARANTEED
 
   1 read write
SS=Self service
Update Fuel Prices
 

Would you like to see your business listed on this page?

 If your business provides an interesting product or service to pilots, flight crews, aircraft, or users of the Panola County Airport-Sharpe Field, you should consider listing it here.  To start the listing process, click on the button below
 
Add a business
 

Other Pages about Panola County Airport-Sharpe Field

www.kcchl.com/airport.html
 
Update a link
 
Copyright © AirNav, LLC. All rights reserved. Privacy Policy  Contact